User: anonymous   Login
Location: Unspecified
(0.0000°N, 0.0000°E)
Time: 23:22:24
(UTC+00:00)
Language:

UNISAT 5 - Orbit

View from above orbital plane
View from above orbital plane
View from above satellite
View from above satellite

Ground track
Ground track

The orbit data is extracted from the following two-line orbital elements,

1 39421U 13066F   18051.48057768  .00000176  00000-0  25047-4 0  9991
2 39421  97.6098 103.9503 0032273 135.3342 225.0483 14.87514263230560
Epoch (UTC): 20 February 2018 11:32:01
Eccentricity: 0.0032273
inclination: 97.6098°
perigee height: 583 km
apogee height: 628 km
right ascension of ascending node: 103.9503°
argument of perigee: 135.3342°
revolutions per day: 14.87514263
mean anomaly at epoch: 225.0483°
orbit number at epoch: 23056

The dashed part of the orbit path shows where the satellite is in the earth's shadow,  

DLR